Home   Weather   Boise   Past weeks

Flag for USA Past Weather in Boise, Idaho, USA — Yesterday and Last 2 Weeks

Now
23 °F

Snow. Ice fog.


Feels Like: 17 °F
Forecast: 21 / 29 °F
Wind: 5 mph from Southeast

Location: Boise Air Terminal

Current Time: Dec 6, 2016 at 11:13:13 am

Latest Report: Dec 6, 2016 at 9:53 am


Visibility: 0 mi

Pressure: 29.99 "Hg (27.01 "Hg at 822m altitude)

Humidity: 92%

Dew Point: 21 °F

Location of BoiseLocation

Past Weather in Boise — Graph

°F

Boise Temperature Yesterday

Maximum temperature yesterday: 34 °F (at 3:53 pm)
Minimum temperature yesterday: 21 °F (at 6:53 am)
Average temperature yesterday: 27 °F

High & Low Weather Summary for the Past Weeks

 TemperatureHumidityPressure
High61 °F (Nov 26, 2:53 pm)97% (Nov 28, 1:53 am)30.47 "Hg (Nov 28, 1:53 am)
Low19 °F (Dec 2, 5:53 am)13% (Nov 26, 2:53 pm)29.45 "Hg (Nov 26, 8:53 pm)
Average38 °F64%30.06 "Hg
* Reported Nov 21 9:00 am — Dec 6 9:53 am, Boise, Weather by CustomWeather, © 2016

Note: Actual official high and low records may vary slightly from our data, if they occured in-between our weather recording intervals... More about our weather records

Advertising

Boise Weather History for the Previous 24 Hours

Scroll right to see more
 ConditionsComfort  
Time TempWeatherWind HumidityBarometerVisibility
9:53 am
Tue, Dec 6
23 °FSnow. Ice fog.5 mph92%29.99 "Hg1 mi
8:53 am24 °FLight snow. Ice fog.7 mph84%29.97 "Hg2 mi
7:53 am25 °FLight snow. Overcast.10 mph69%29.97 "Hg3 mi
6:53 am24 °FOvercast.10 mph65%29.96 "Hg10 mi
5:53 am24 °FOvercast.13 mph65%29.96 "Hg10 mi
4:53 am24 °FMostly cloudy.12 mph57%29.96 "Hg10 mi
3:53 am26 °FMostly cloudy.12 mph48%29.96 "Hg10 mi
2:53 am26 °FMostly cloudy.14 mph50%29.98 "Hg10 mi
1:53 am25 °FOvercast.16 mph53%29.99 "Hg10 mi
12:53 am25 °FOvercast.16 mph55%30.03 "Hg10 mi
11:53 pm
Mon, Dec 5
25 °FPassing clouds.15 mph60%30.05 "Hg10 mi
10:53 pm25 °FClear.9 mph63%30.08 "Hg10 mi
9:53 pm25 °FClear.9 mph63%30.09 "Hg10 mi
8:53 pm25 °FClear.8 mph66%30.10 "Hg10 mi
7:53 pm24 °FClear.8 mph71%30.12 "Hg10 mi
6:53 pm25 °FClear.6 mph69%30.13 "Hg10 mi
5:53 pm29 °FSunny.6 mph56%30.13 "Hg10 mi
4:53 pm32 °FSunny.No wind47%30.14 "Hg10 mi
3:53 pm34 °FSunny.3 mph44%30.14 "Hg10 mi
2:53 pm33 °FSunny.No wind45%30.14 "Hg10 mi
1:53 pm33 °FSunny.No wind49%30.16 "Hg10 mi
12:53 pm32 °FSunny.3 mph52%30.19 "Hg10 mi
11:53 am31 °FSunny.No wind54%30.22 "Hg10 mi
Weather by CustomWeather, © 2016

See weather overviewHow to use our weather pages